Year,Month,Day,Hour,Minute,Value (Times are PST for temperature in C)
2017,06,24,00,00,14.00
2017,06,24,00,01,14.00
2017,06,24,00,02,14.00
2017,06,24,00,03,14.00
2017,06,24,00,04,14.00
2017,06,24,00,05,14.00
2017,06,24,00,06,14.00
2017,06,24,00,07,13.90
2017,06,24,00,08,13.90
2017,06,24,00,09,13.90
2017,06,24,00,10,13.90
2017,06,24,00,11,13.80
2017,06,24,00,12,13.80
2017,06,24,00,13,13.80
2017,06,24,00,14,13.80
2017,06,24,00,15,13.70
2017,06,24,00,16,13.70
2017,06,24,00,17,13.70
2017,06,24,00,18,13.70
2017,06,24,00,19,13.70
2017,06,24,00,20,13.70
2017,06,24,00,21,13.60
2017,06,24,00,22,13.60
2017,06,24,00,23,13.60
2017,06,24,00,24,13.60
2017,06,24,00,25,13.60
2017,06,24,00,26,13.60
2017,06,24,00,27,13.70
2017,06,24,00,28,13.70
2017,06,24,00,29,13.70
2017,06,24,00,30,13.70
2017,06,24,00,31,13.60
2017,06,24,00,32,13.60
2017,06,24,00,33,13.60
2017,06,24,00,34,13.60
2017,06,24,00,35,13.50
2017,06,24,00,36,13.50
2017,06,24,00,37,13.50
2017,06,24,00,38,13.50
2017,06,24,00,39,13.40
2017,06,24,00,40,13.30
2017,06,24,00,41,13.30
2017,06,24,00,42,13.30
2017,06,24,00,43,13.30
2017,06,24,00,44,13.30
2017,06,24,00,45,13.30
2017,06,24,00,46,13.30
2017,06,24,00,47,13.20
2017,06,24,00,48,13.20
2017,06,24,00,49,13.20
2017,06,24,00,50,13.20
2017,06,24,00,51,13.30
2017,06,24,00,52,13.30
2017,06,24,00,53,13.30
2017,06,24,00,54,13.30
2017,06,24,00,55,13.30
2017,06,24,00,56,13.30
2017,06,24,00,57,13.30
2017,06,24,00,58,13.30
2017,06,24,00,59,13.30
2017,06,24,01,00,13.30
2017,06,24,01,01,13.40
2017,06,24,01,02,13.40
2017,06,24,01,03,13.40
2017,06,24,01,04,13.30
2017,06,24,01,05,13.30
2017,06,24,01,06,13.30
2017,06,24,01,07,13.30
2017,06,24,01,08,13.30
2017,06,24,01,09,13.30
2017,06,24,01,10,13.30
2017,06,24,01,11,13.30
2017,06,24,01,12,13.30
2017,06,24,01,13,13.30
2017,06,24,01,14,13.30
2017,06,24,01,15,13.20
2017,06,24,01,16,13.20
2017,06,24,01,17,13.20
2017,06,24,01,18,13.20
2017,06,24,01,19,13.20
2017,06,24,01,20,13.20
2017,06,24,01,21,13.20
2017,06,24,01,22,13.20
2017,06,24,01,23,13.20
2017,06,24,01,24,13.20
2017,06,24,01,25,13.20
2017,06,24,01,26,13.20
2017,06,24,01,27,13.30
2017,06,24,01,28,13.30
2017,06,24,01,29,13.30
2017,06,24,01,30,13.30
2017,06,24,01,31,13.20
2017,06,24,01,32,13.20
2017,06,24,01,33,13.20
2017,06,24,01,34,13.20
2017,06,24,01,35,13.20
2017,06,24,01,36,13.30
2017,06,24,01,37,13.30
2017,06,24,01,38,13.30
2017,06,24,01,39,13.20
2017,06,24,01,40,13.20
2017,06,24,01,41,13.20
2017,06,24,01,42,13.20
2017,06,24,01,43,13.20
2017,06,24,01,44,13.20
2017,06,24,01,45,13.10
2017,06,24,01,46,13.10
2017,06,24,01,47,13.10
2017,06,24,01,48,13.10
2017,06,24,01,49,13.10
2017,06,24,01,50,13.10
2017,06,24,01,51,13.10
2017,06,24,01,52,13.10
2017,06,24,01,53,13.10
2017,06,24,01,54,13.00
2017,06,24,01,55,13.00
2017,06,24,01,56,13.00
2017,06,24,01,57,13.00
2017,06,24,01,58,13.00
2017,06,24,01,59,13.00
2017,06,24,02,00,12.90
2017,06,24,02,01,12.90
2017,06,24,02,02,12.90
2017,06,24,02,03,12.80
2017,06,24,02,04,12.80
2017,06,24,02,05,12.80
2017,06,24,02,06,12.80
2017,06,24,02,07,12.80
2017,06,24,02,08,12.80
2017,06,24,02,09,12.80
2017,06,24,02,10,12.80
2017,06,24,02,11,12.80
2017,06,24,02,12,12.80
2017,06,24,02,13,12.80
2017,06,24,02,14,12.80
2017,06,24,02,15,12.80
2017,06,24,02,16,12.80
2017,06,24,02,17,12.70
2017,06,24,02,18,12.70
2017,06,24,02,19,12.70
2017,06,24,02,20,12.60
2017,06,24,02,21,12.60
2017,06,24,02,22,12.60
2017,06,24,02,23,12.50
2017,06,24,02,24,12.50
2017,06,24,02,25,12.50
2017,06,24,02,26,12.50
2017,06,24,02,27,12.40
2017,06,24,02,28,12.40
2017,06,24,02,29,12.40
2017,06,24,02,30,12.40
2017,06,24,02,31,12.30
2017,06,24,02,32,12.30
2017,06,24,02,33,12.30
2017,06,24,02,34,12.30
2017,06,24,02,35,12.30
2017,06,24,02,36,12.40
2017,06,24,02,37,12.40
2017,06,24,02,38,12.40
2017,06,24,02,39,12.50
2017,06,24,02,40,12.50
2017,06,24,02,41,12.50
2017,06,24,02,42,12.50
2017,06,24,02,43,12.50
2017,06,24,02,44,12.50
2017,06,24,02,45,12.40
2017,06,24,02,46,12.40
2017,06,24,02,47,12.40
2017,06,24,02,48,12.30
2017,06,24,02,49,12.30
2017,06,24,02,50,12.30
2017,06,24,02,51,12.30
2017,06,24,02,52,12.30
2017,06,24,02,53,12.20
2017,06,24,02,54,12.20
2017,06,24,02,55,12.20
2017,06,24,02,56,12.10
2017,06,24,02,57,12.10
2017,06,24,02,58,12.10
2017,06,24,02,59,12.20
2017,06,24,03,00,12.20
2017,06,24,03,01,12.30
2017,06,24,03,02,12.30
2017,06,24,03,03,12.30
2017,06,24,03,04,12.30
2017,06,24,03,05,12.30
2017,06,24,03,06,12.30
2017,06,24,03,07,12.30
2017,06,24,03,08,12.30
2017,06,24,03,09,12.30
2017,06,24,03,10,12.30
2017,06,24,03,11,12.30
2017,06,24,03,12,12.30
2017,06,24,03,13,12.30
2017,06,24,03,14,12.30
2017,06,24,03,15,12.30
2017,06,24,03,16,12.30
2017,06,24,03,17,12.30
2017,06,24,03,18,12.30
2017,06,24,03,19,12.30
2017,06,24,03,20,12.30
2017,06,24,03,21,12.30
2017,06,24,03,22,12.30
2017,06,24,03,23,12.30
2017,06,24,03,24,12.30
2017,06,24,03,25,12.30
2017,06,24,03,26,12.30
2017,06,24,03,27,12.20
2017,06,24,03,28,12.20
2017,06,24,03,29,12.10
2017,06,24,03,30,12.10
2017,06,24,03,31,12.00
2017,06,24,03,32,12.00
2017,06,24,03,33,12.00
2017,06,24,03,34,12.00
2017,06,24,03,35,12.00
2017,06,24,03,36,12.00
2017,06,24,03,37,12.00
2017,06,24,03,38,11.90
2017,06,24,03,39,12.00
2017,06,24,03,40,12.00
2017,06,24,03,41,12.00
2017,06,24,03,42,12.00
2017,06,24,03,43,12.00
2017,06,24,03,44,12.00
2017,06,24,03,45,12.00
2017,06,24,03,46,12.00
2017,06,24,03,47,12.00
2017,06,24,03,48,12.00
2017,06,24,03,49,12.00
2017,06,24,03,50,12.10
2017,06,24,03,51,12.10
2017,06,24,03,52,12.10
2017,06,24,03,53,12.10
2017,06,24,03,54,12.10
2017,06,24,03,55,12.20
2017,06,24,03,56,12.20
2017,06,24,03,57,12.30
2017,06,24,03,58,12.30
2017,06,24,03,59,12.30
2017,06,24,04,00,12.30
2017,06,24,04,01,12.30
2017,06,24,04,02,12.30
2017,06,24,04,03,12.30
2017,06,24,04,04,12.30
2017,06,24,04,05,12.30
2017,06,24,04,06,12.30
2017,06,24,04,07,12.30
2017,06,24,04,08,12.30
2017,06,24,04,09,12.30
2017,06,24,04,10,12.30
2017,06,24,04,11,12.30
2017,06,24,04,12,12.30
2017,06,24,04,13,12.30
2017,06,24,04,14,12.30
2017,06,24,04,15,12.30
2017,06,24,04,16,12.30
2017,06,24,04,17,12.30
2017,06,24,04,18,12.30
2017,06,24,04,19,12.30
2017,06,24,04,20,12.30
2017,06,24,04,21,12.30
2017,06,24,04,22,12.30
2017,06,24,04,23,12.20
2017,06,24,04,24,12.20
2017,06,24,04,25,12.10
2017,06,24,04,26,12.10
2017,06,24,04,27,12.00
2017,06,24,04,28,12.00
2017,06,24,04,29,12.00
2017,06,24,04,30,11.90
2017,06,24,04,31,11.90
2017,06,24,04,32,11.80
2017,06,24,04,33,11.80
2017,06,24,04,34,11.80
2017,06,24,04,35,11.90
2017,06,24,04,36,11.80
2017,06,24,04,37,11.80
2017,06,24,04,38,11.80
2017,06,24,04,39,11.80
2017,06,24,04,40,11.90
2017,06,24,04,41,11.90
2017,06,24,04,42,11.90
2017,06,24,04,43,11.90
2017,06,24,04,44,11.90
2017,06,24,04,45,12.00
2017,06,24,04,46,12.00
2017,06,24,04,47,12.00
2017,06,24,04,48,12.10
2017,06,24,04,49,12.10
2017,06,24,04,50,12.10
2017,06,24,04,51,12.10
2017,06,24,04,52,12.00
2017,06,24,04,53,12.00
2017,06,24,04,54,12.00
2017,06,24,04,55,12.00
2017,06,24,04,56,12.00
2017,06,24,04,57,12.00
2017,06,24,04,58,11.90
2017,06,24,04,59,11.90
2017,06,24,05,00,11.90
2017,06,24,05,01,11.90
2017,06,24,05,02,11.90
2017,06,24,05,03,11.90
2017,06,24,05,04,11.90
2017,06,24,05,05,11.90
2017,06,24,05,06,11.90
2017,06,24,05,07,11.90
2017,06,24,05,08,11.90
2017,06,24,05,09,11.80
2017,06,24,05,10,11.80
2017,06,24,05,11,11.80
2017,06,24,05,12,11.80
2017,06,24,05,13,11.80
2017,06,24,05,14,11.80
2017,06,24,05,15,11.80
2017,06,24,05,16,11.80
2017,06,24,05,17,11.80
2017,06,24,05,18,11.80
2017,06,24,05,19,11.80
2017,06,24,05,20,11.80
2017,06,24,05,21,11.70
2017,06,24,05,22,11.70
2017,06,24,05,23,11.70
2017,06,24,05,24,11.70
2017,06,24,05,25,11.60
2017,06,24,05,26,11.60
2017,06,24,05,27,11.60
2017,06,24,05,28,11.60
2017,06,24,05,29,11.60
2017,06,24,05,30,11.60
2017,06,24,05,31,11.60
2017,06,24,05,32,11.60
2017,06,24,05,33,11.60
2017,06,24,05,34,11.50
2017,06,24,05,35,11.40
2017,06,24,05,36,11.40
2017,06,24,05,37,11.40
2017,06,24,05,38,11.40
2017,06,24,05,39,11.40
2017,06,24,05,40,11.40
2017,06,24,05,41,11.40
2017,06,24,05,42,11.40
2017,06,24,05,43,11.40
2017,06,24,05,44,11.30
2017,06,24,05,45,11.30
2017,06,24,05,46,11.30
2017,06,24,05,47,11.30
2017,06,24,05,48,11.30
2017,06,24,05,49,11.40
2017,06,24,05,50,11.40
2017,06,24,05,51,11.40
2017,06,24,05,52,11.40
2017,06,24,05,53,11.40
2017,06,24,05,54,11.40
2017,06,24,05,55,11.40
2017,06,24,05,56,11.40
2017,06,24,05,57,11.40
2017,06,24,05,58,11.50
2017,06,24,05,59,11.60
2017,06,24,06,00,11.60
2017,06,24,06,01,11.60
2017,06,24,06,02,11.70
2017,06,24,06,03,11.70
2017,06,24,06,04,11.80
2017,06,24,06,05,11.80
2017,06,24,06,06,11.80
2017,06,24,06,07,11.90
2017,06,24,06,08,11.90
2017,06,24,06,09,12.00
2017,06,24,06,10,12.00
2017,06,24,06,11,12.10
2017,06,24,06,12,12.10
2017,06,24,06,13,12.20
2017,06,24,06,14,12.20
2017,06,24,06,15,12.30
2017,06,24,06,16,12.30
2017,06,24,06,17,12.30
2017,06,24,06,18,12.40
2017,06,24,06,19,12.50
2017,06,24,06,20,12.50
2017,06,24,06,21,12.60
2017,06,24,06,22,12.70
2017,06,24,06,23,12.80
2017,06,24,06,24,12.90
2017,06,24,06,25,13.00
2017,06,24,06,26,13.20
2017,06,24,06,27,13.20
2017,06,24,06,28,13.30
2017,06,24,06,29,13.40
2017,06,24,06,30,13.50
2017,06,24,06,31,13.50
2017,06,24,06,32,13.60
2017,06,24,06,33,13.60
2017,06,24,06,34,13.70
2017,06,24,06,35,13.70
2017,06,24,06,36,13.70
2017,06,24,06,37,13.70
2017,06,24,06,38,13.80
2017,06,24,06,39,13.80
2017,06,24,06,40,13.80
2017,06,24,06,41,13.90
2017,06,24,06,42,13.90
2017,06,24,06,43,14.00
2017,06,24,06,44,14.00
2017,06,24,06,45,14.10
2017,06,24,06,46,14.20
2017,06,24,06,47,14.20
2017,06,24,06,48,14.30
2017,06,24,06,49,14.40
2017,06,24,06,50,14.40
2017,06,24,06,51,14.50
2017,06,24,06,52,14.60
2017,06,24,06,53,14.60
2017,06,24,06,54,14.70
2017,06,24,06,55,14.70
2017,06,24,06,56,14.80
2017,06,24,06,57,14.90
2017,06,24,06,58,14.90
2017,06,24,06,59,15.00
2017,06,24,07,00,15.10
2017,06,24,07,01,15.10
2017,06,24,07,02,15.20
2017,06,24,07,03,15.30
2017,06,24,07,04,15.30
2017,06,24,07,05,15.30
2017,06,24,07,06,15.40
2017,06,24,07,07,15.40
2017,06,24,07,08,15.50
2017,06,24,07,09,15.50
2017,06,24,07,10,15.50
2017,06,24,07,11,15.60
2017,06,24,07,12,15.70
2017,06,24,07,13,15.80
2017,06,24,07,14,15.80
2017,06,24,07,15,15.80
2017,06,24,07,16,15.90
2017,06,24,07,17,15.90
2017,06,24,07,18,15.90
2017,06,24,07,19,16.00
2017,06,24,07,20,16.10
2017,06,24,07,21,16.10
2017,06,24,07,22,16.10
2017,06,24,07,23,16.20
2017,06,24,07,24,16.20
2017,06,24,07,25,16.30
2017,06,24,07,26,16.30
2017,06,24,07,27,16.40
2017,06,24,07,28,16.40
2017,06,24,07,29,16.40
2017,06,24,07,30,16.60
2017,06,24,07,31,16.60
2017,06,24,07,32,16.70
2017,06,24,07,33,16.70
2017,06,24,07,34,16.80
2017,06,24,07,35,16.80
2017,06,24,07,36,16.90
2017,06,24,07,37,16.90
2017,06,24,07,38,16.90
2017,06,24,07,39,16.90
2017,06,24,07,40,17.00
2017,06,24,07,41,17.00
2017,06,24,07,42,17.00
2017,06,24,07,43,17.10
2017,06,24,07,44,17.20
2017,06,24,07,45,17.30
2017,06,24,07,46,17.30
2017,06,24,07,47,17.40
2017,06,24,07,48,17.50
2017,06,24,07,49,17.60
2017,06,24,07,50,17.70
2017,06,24,07,51,17.80
2017,06,24,07,52,17.90
2017,06,24,07,53,17.90
2017,06,24,07,54,18.00
2017,06,24,07,55,18.10
2017,06,24,07,56,18.20
2017,06,24,07,57,18.30
2017,06,24,07,58,18.40
2017,06,24,07,59,18.50
2017,06,24,08,00,18.60
2017,06,24,08,01,18.70
2017,06,24,08,02,18.80
2017,06,24,08,03,18.90
2017,06,24,08,04,18.90
2017,06,24,08,05,19.00
2017,06,24,08,06,19.10
2017,06,24,08,07,19.10
2017,06,24,08,08,19.20
2017,06,24,08,09,19.30
2017,06,24,08,10,19.40
2017,06,24,08,11,19.50
2017,06,24,08,12,19.60
2017,06,24,08,13,19.70
2017,06,24,08,14,19.80
2017,06,24,08,15,19.90
2017,06,24,08,16,19.90
2017,06,24,08,17,19.90
2017,06,24,08,18,19.90
2017,06,24,08,19,19.90
2017,06,24,08,20,19.90
2017,06,24,08,21,19.90
2017,06,24,08,22,19.90
2017,06,24,08,23,20.00
2017,06,24,08,24,20.10
2017,06,24,08,25,20.10
2017,06,24,08,26,20.10
2017,06,24,08,27,20.20
2017,06,24,08,28,20.20
2017,06,24,08,29,20.20
2017,06,24,08,30,20.20
2017,06,24,08,31,20.30
2017,06,24,08,32,20.30
2017,06,24,08,33,20.40
2017,06,24,08,34,20.50
2017,06,24,08,35,20.50
2017,06,24,08,36,20.70
2017,06,24,08,37,20.70
2017,06,24,08,38,20.80
2017,06,24,08,39,20.80
2017,06,24,08,40,20.90
2017,06,24,08,41,20.90
2017,06,24,08,42,21.00
2017,06,24,08,43,21.00
2017,06,24,08,44,21.00
2017,06,24,08,45,21.00
2017,06,24,08,46,20.90
2017,06,24,08,47,20.90
2017,06,24,08,48,21.00
2017,06,24,08,49,21.00
2017,06,24,08,50,21.10
2017,06,24,08,51,21.10
2017,06,24,08,52,21.10
2017,06,24,08,53,21.20
2017,06,24,08,54,21.20
2017,06,24,08,55,21.20
2017,06,24,08,56,21.20
2017,06,24,08,57,21.30
2017,06,24,08,58,21.30
2017,06,24,08,59,21.30
2017,06,24,09,00,21.30
2017,06,24,09,01,21.30
2017,06,24,09,02,21.30
2017,06,24,09,03,21.30
2017,06,24,09,04,21.30
2017,06,24,09,05,21.40
2017,06,24,09,06,21.40
2017,06,24,09,07,21.50
2017,06,24,09,08,21.60
2017,06,24,09,09,21.60
2017,06,24,09,10,21.70
2017,06,24,09,11,21.80
2017,06,24,09,12,21.90
2017,06,24,09,13,21.90
2017,06,24,09,14,22.00
2017,06,24,09,15,22.00
2017,06,24,09,16,22.10
2017,06,24,09,17,22.20
2017,06,24,09,18,22.30
2017,06,24,09,19,22.40
2017,06,24,09,20,22.50
2017,06,24,09,21,22.60
2017,06,24,09,22,22.70
2017,06,24,09,23,22.80
2017,06,24,09,24,22.70
2017,06,24,09,25,22.70
2017,06,24,09,26,22.60
2017,06,24,09,27,22.60
2017,06,24,09,28,22.60
2017,06,24,09,29,22.60
2017,06,24,09,30,22.70
2017,06,24,09,31,22.80
2017,06,24,09,32,22.80
2017,06,24,09,33,22.80
2017,06,24,09,34,22.80
2017,06,24,09,35,22.80
2017,06,24,09,36,22.90
2017,06,24,09,37,22.90
2017,06,24,09,38,22.90
2017,06,24,09,39,23.00
2017,06,24,09,40,23.10
2017,06,24,09,41,23.20
2017,06,24,09,42,23.30
2017,06,24,09,43,23.30
2017,06,24,09,44,23.30
2017,06,24,09,45,23.30
2017,06,24,09,46,23.30
2017,06,24,09,47,23.30
2017,06,24,09,48,23.30
2017,06,24,09,49,23.30
2017,06,24,09,50,23.30
2017,06,24,09,51,23.30
2017,06,24,09,52,23.30
2017,06,24,09,53,23.30
2017,06,24,09,54,23.20
2017,06,24,09,55,23.20
2017,06,24,09,56,23.20
2017,06,24,09,57,23.20
2017,06,24,09,58,23.20
2017,06,24,09,59,23.20
2017,06,24,10,00,23.20
2017,06,24,10,01,23.20
2017,06,24,10,02,23.10
2017,06,24,10,03,23.10
2017,06,24,10,04,23.10
2017,06,24,10,05,23.10
2017,06,24,10,06,23.10
2017,06,24,10,07,23.10
2017,06,24,10,08,23.00
2017,06,24,10,09,23.00
2017,06,24,10,10,23.10
2017,06,24,10,11,23.10
2017,06,24,10,12,23.10
2017,06,24,10,13,22.90
2017,06,24,10,14,23.00
2017,06,24,10,15,23.10
2017,06,24,10,16,23.20
2017,06,24,10,17,23.20
2017,06,24,10,18,23.20
2017,06,24,10,19,23.00
2017,06,24,10,20,22.90
2017,06,24,10,21,22.90
2017,06,24,10,22,22.90
2017,06,24,10,23,22.90
2017,06,24,10,24,22.90
2017,06,24,10,25,22.90
2017,06,24,10,26,22.90
2017,06,24,10,27,23.00
2017,06,24,10,28,23.10
2017,06,24,10,29,23.20
2017,06,24,10,30,23.30
2017,06,24,10,31,23.30
2017,06,24,10,32,23.20
2017,06,24,10,33,23.20
2017,06,24,10,34,23.20
2017,06,24,10,35,23.20
2017,06,24,10,36,23.30
2017,06,24,10,37,23.30
2017,06,24,10,38,23.30
2017,06,24,10,39,23.30
2017,06,24,10,40,23.30
2017,06,24,10,41,23.20
2017,06,24,10,42,23.20
2017,06,24,10,43,23.20
2017,06,24,10,44,23.20
2017,06,24,10,45,23.20
2017,06,24,10,46,23.20
2017,06,24,10,47,23.20
2017,06,24,10,48,23.20
2017,06,24,10,49,23.20
2017,06,24,10,50,23.10
2017,06,24,10,51,23.10
2017,06,24,10,52,23.10
2017,06,24,10,53,23.10
2017,06,24,10,54,23.10
2017,06,24,10,55,23.20
2017,06,24,10,56,23.20
2017,06,24,10,57,23.20
2017,06,24,10,58,23.20
2017,06,24,10,59,23.20
2017,06,24,11,00,23.20
2017,06,24,11,01,23.20
2017,06,24,11,02,23.20
2017,06,24,11,03,23.20
2017,06,24,11,04,23.30
2017,06,24,11,05,23.30
2017,06,24,11,06,23.30
2017,06,24,11,07,23.30
2017,06,24,11,08,23.30
2017,06,24,11,09,23.30
2017,06,24,11,10,23.30
2017,06,24,11,11,23.30
2017,06,24,11,12,23.40
2017,06,24,11,13,23.40
2017,06,24,11,14,23.40
2017,06,24,11,15,23.50
2017,06,24,11,16,23.60
2017,06,24,11,17,23.60
2017,06,24,11,18,23.60
2017,06,24,11,19,23.70
2017,06,24,11,20,23.70
2017,06,24,11,21,23.70
2017,06,24,11,22,23.70
2017,06,24,11,23,23.70
2017,06,24,11,24,23.80
2017,06,24,11,25,23.80
2017,06,24,11,26,23.90
2017,06,24,11,27,23.90
2017,06,24,11,28,23.90
2017,06,24,11,29,24.10
2017,06,24,11,30,24.10
2017,06,24,11,31,24.10
2017,06,24,11,32,24.10
2017,06,24,11,33,24.10
2017,06,24,11,34,24.10
2017,06,24,11,35,24.10
2017,06,24,11,36,24.10
2017,06,24,11,37,24.10
2017,06,24,11,38,24.10
2017,06,24,11,39,24.10
2017,06,24,11,40,24.10
2017,06,24,11,41,24.10
2017,06,24,11,42,24.20
2017,06,24,11,43,24.30
2017,06,24,11,44,24.30
2017,06,24,11,45,24.40
2017,06,24,11,46,24.50
2017,06,24,11,47,24.60
2017,06,24,11,48,24.70
2017,06,24,11,49,24.80
2017,06,24,11,50,24.90
2017,06,24,11,51,24.90
2017,06,24,11,52,25.10
2017,06,24,11,53,25.20
2017,06,24,11,54,25.20
2017,06,24,11,55,25.20
2017,06,24,11,56,25.30
2017,06,24,11,57,25.40
2017,06,24,11,58,25.50
2017,06,24,11,59,25.50
2017,06,24,12,00,25.60
2017,06,24,12,01,25.60
2017,06,24,12,02,25.60
2017,06,24,12,03,25.60
2017,06,24,12,04,25.60
2017,06,24,12,05,25.60
2017,06,24,12,06,25.60
2017,06,24,12,07,25.60
2017,06,24,12,08,25.50
2017,06,24,12,09,25.50
2017,06,24,12,10,25.40
2017,06,24,12,11,25.40
2017,06,24,12,12,25.40
2017,06,24,12,13,25.40
2017,06,24,12,14,25.40
2017,06,24,12,15,25.30
2017,06,24,12,16,25.30
2017,06,24,12,17,25.20
2017,06,24,12,18,25.30
2017,06,24,12,19,25.30
2017,06,24,12,20,25.30
2017,06,24,12,21,25.30
2017,06,24,12,22,25.40
2017,06,24,12,23,25.40
2017,06,24,12,24,25.40
2017,06,24,12,25,25.40
2017,06,24,12,26,25.40
2017,06,24,12,27,25.50
2017,06,24,12,28,25.50
2017,06,24,12,29,25.50
2017,06,24,12,30,25.40
2017,06,24,12,31,25.50
2017,06,24,12,32,25.40
2017,06,24,12,33,25.40
2017,06,24,12,34,25.40
2017,06,24,12,35,25.30
2017,06,24,12,36,25.30
2017,06,24,12,37,25.30
2017,06,24,12,38,25.30
2017,06,24,12,39,25.20
2017,06,24,12,40,25.20
2017,06,24,12,41,25.20
2017,06,24,12,42,25.20
2017,06,24,12,43,25.30
2017,06,24,12,44,25.30
2017,06,24,12,45,25.30
2017,06,24,12,46,25.30
2017,06,24,12,47,25.30
2017,06,24,12,48,25.30
2017,06,24,12,49,25.40
2017,06,24,12,50,25.40
2017,06,24,12,51,25.40
2017,06,24,12,52,25.50
2017,06,24,12,53,25.50
2017,06,24,12,54,25.50
2017,06,24,12,55,25.50
2017,06,24,12,56,25.40
2017,06,24,12,57,25.40
2017,06,24,12,58,25.50
2017,06,24,12,59,25.50
2017,06,24,13,00,25.60
2017,06,24,13,01,25.60
2017,06,24,13,02,25.60
2017,06,24,13,03,25.60
2017,06,24,13,04,25.70
2017,06,24,13,05,25.70
2017,06,24,13,06,25.70
2017,06,24,13,07,25.70
2017,06,24,13,08,25.80
2017,06,24,13,09,25.80
2017,06,24,13,10,25.90
2017,06,24,13,11,25.90
2017,06,24,13,12,25.90
2017,06,24,13,13,25.90
2017,06,24,13,14,25.90
2017,06,24,13,15,25.90
2017,06,24,13,16,25.90
2017,06,24,13,17,26.00
2017,06,24,13,18,26.00
2017,06,24,13,19,25.90
2017,06,24,13,20,25.90
2017,06,24,13,21,25.90
2017,06,24,13,22,25.80
2017,06,24,13,23,25.80
2017,06,24,13,24,25.80
2017,06,24,13,25,25.80
2017,06,24,13,26,25.90
2017,06,24,13,27,25.90
2017,06,24,13,28,25.90
2017,06,24,13,29,25.80
2017,06,24,13,30,25.90
2017,06,24,13,31,25.90
2017,06,24,13,32,26.00
2017,06,24,13,33,25.90
2017,06,24,13,34,25.90
2017,06,24,13,35,26.00
2017,06,24,13,36,26.00
2017,06,24,13,37,26.00
2017,06,24,13,38,25.90
2017,06,24,13,39,25.80
2017,06,24,13,40,25.80
2017,06,24,13,41,25.80
2017,06,24,13,42,25.80
2017,06,24,13,43,25.80
2017,06,24,13,44,25.80
2017,06,24,13,45,25.70
2017,06,24,13,46,25.70
2017,06,24,13,47,25.70
2017,06,24,13,48,25.70
2017,06,24,13,49,25.70
2017,06,24,13,50,25.70
2017,06,24,13,51,25.80
2017,06,24,13,52,25.80
2017,06,24,13,53,25.90
2017,06,24,13,54,25.90
2017,06,24,13,55,25.90
2017,06,24,13,56,26.00
2017,06,24,13,57,26.00
2017,06,24,13,58,26.00
2017,06,24,13,59,26.10
2017,06,24,14,00,26.20
2017,06,24,14,01,26.30
2017,06,24,14,02,26.40
2017,06,24,14,03,26.50
2017,06,24,14,04,26.60
2017,06,24,14,05,26.60
2017,06,24,14,06,26.60
2017,06,24,14,07,26.60
2017,06,24,14,08,26.60
2017,06,24,14,09,26.60
2017,06,24,14,10,26.60
2017,06,24,14,11,26.50
2017,06,24,14,12,26.30
2017,06,24,14,13,26.00
2017,06,24,14,14,25.60
2017,06,24,14,15,25.40
2017,06,24,14,16,25.20
2017,06,24,14,17,25.00
2017,06,24,14,18,24.80
2017,06,24,14,19,24.70
2017,06,24,14,20,24.60
2017,06,24,14,21,24.60
2017,06,24,14,22,24.50
2017,06,24,14,23,24.60
2017,06,24,14,24,24.70
2017,06,24,14,25,24.80
2017,06,24,14,26,24.90
2017,06,24,14,27,25.00
2017,06,24,14,28,25.10
2017,06,24,14,29,25.10
2017,06,24,14,30,25.20
2017,06,24,14,31,25.30
2017,06,24,14,32,25.40
2017,06,24,14,33,25.40
2017,06,24,14,34,25.40
2017,06,24,14,35,25.40
2017,06,24,14,36,25.40
2017,06,24,14,37,25.40
2017,06,24,14,38,25.40
2017,06,24,14,39,25.40
2017,06,24,14,40,25.40
2017,06,24,14,41,25.40
2017,06,24,14,42,25.40
2017,06,24,14,43,25.30
2017,06,24,14,44,25.20
2017,06,24,14,45,25.00
2017,06,24,14,46,25.00
2017,06,24,14,47,25.00
2017,06,24,14,48,25.00
2017,06,24,14,49,25.00
2017,06,24,14,50,25.00
2017,06,24,14,51,25.00
2017,06,24,14,52,25.10
2017,06,24,14,53,25.10
2017,06,24,14,54,25.00
2017,06,24,14,55,25.00
2017,06,24,14,56,25.00
2017,06,24,14,57,25.10
2017,06,24,14,58,25.10
2017,06,24,14,59,25.10
2017,06,24,15,00,25.10
2017,06,24,15,01,25.10
2017,06,24,15,02,25.10
2017,06,24,15,03,25.00
2017,06,24,15,04,24.90
2017,06,24,15,05,24.90
2017,06,24,15,06,24.90
2017,06,24,15,07,24.90
2017,06,24,15,08,24.90
2017,06,24,15,09,25.00
2017,06,24,15,10,25.00
2017,06,24,15,11,25.00
2017,06,24,15,12,25.00
2017,06,24,15,13,25.10
2017,06,24,15,14,25.10
2017,06,24,15,15,25.10
2017,06,24,15,16,25.20
2017,06,24,15,17,25.30
2017,06,24,15,18,25.30
2017,06,24,15,19,25.40
2017,06,24,15,20,25.30
2017,06,24,15,21,25.20
2017,06,24,15,22,25.20
2017,06,24,15,23,25.20
2017,06,24,15,24,25.20
2017,06,24,15,25,25.30
2017,06,24,15,26,25.30
2017,06,24,15,27,25.40
2017,06,24,15,28,25.40
2017,06,24,15,29,25.40
2017,06,24,15,30,25.40
2017,06,24,15,31,25.40
2017,06,24,15,32,25.40
2017,06,24,15,33,25.50
2017,06,24,15,34,25.40
2017,06,24,15,35,25.40
2017,06,24,15,36,25.40
2017,06,24,15,37,25.40
2017,06,24,15,38,25.50
2017,06,24,15,39,25.50
2017,06,24,15,40,25.50
2017,06,24,15,41,25.50
2017,06,24,15,42,25.50
2017,06,24,15,43,25.40
2017,06,24,15,44,25.40
2017,06,24,15,45,25.40
2017,06,24,15,46,25.40
2017,06,24,15,47,25.50
2017,06,24,15,48,25.50
2017,06,24,15,49,25.60
2017,06,24,15,50,25.70
2017,06,24,15,51,25.80
2017,06,24,15,52,25.90
2017,06,24,15,53,25.90
2017,06,24,15,54,26.00
2017,06,24,15,55,26.10
2017,06,24,15,56,26.10
2017,06,24,15,57,26.10
2017,06,24,15,58,26.10
2017,06,24,15,59,26.10
2017,06,24,16,00,26.00
2017,06,24,16,01,25.90
2017,06,24,16,02,25.90
2017,06,24,16,03,25.90
2017,06,24,16,04,25.90
2017,06,24,16,05,25.90
2017,06,24,16,06,25.90
2017,06,24,16,07,25.80
2017,06,24,16,08,25.80
2017,06,24,16,09,25.80
2017,06,24,16,10,25.90
2017,06,24,16,11,25.90
2017,06,24,16,12,25.90
2017,06,24,16,13,26.00
2017,06,24,16,14,26.10
2017,06,24,16,15,26.10
2017,06,24,16,16,26.20
2017,06,24,16,17,26.10
2017,06,24,16,18,26.00
2017,06,24,16,19,26.00
2017,06,24,16,20,26.00
2017,06,24,16,21,25.90
2017,06,24,16,22,25.90
2017,06,24,16,23,25.80
2017,06,24,16,24,25.80
2017,06,24,16,25,25.80
2017,06,24,16,26,25.90
2017,06,24,16,27,25.90
2017,06,24,16,28,25.90
2017,06,24,16,29,25.90
2017,06,24,16,30,25.90
2017,06,24,16,31,25.90
2017,06,24,16,32,25.80
2017,06,24,16,33,25.80
2017,06,24,16,34,25.80
2017,06,24,16,35,25.80
2017,06,24,16,36,25.80
2017,06,24,16,37,25.80
2017,06,24,16,38,25.80
2017,06,24,16,39,25.80
2017,06,24,16,40,25.90
2017,06,24,16,41,25.90
2017,06,24,16,42,25.90
2017,06,24,16,43,25.90
2017,06,24,16,44,26.00
2017,06,24,16,45,26.00
2017,06,24,16,46,26.00
2017,06,24,16,47,25.90
2017,06,24,16,48,26.00
2017,06,24,16,49,26.00
2017,06,24,16,50,26.00
2017,06,24,16,51,25.90
2017,06,24,16,52,25.90
2017,06,24,16,53,25.90
2017,06,24,16,54,25.90
2017,06,24,16,55,25.90
2017,06,24,16,56,25.80
2017,06,24,16,57,25.80
2017,06,24,16,58,25.80
2017,06,24,16,59,25.90
2017,06,24,17,00,25.90
2017,06,24,17,01,25.80
2017,06,24,17,02,25.90
2017,06,24,17,03,25.90
2017,06,24,17,04,25.90
2017,06,24,17,05,25.90
2017,06,24,17,06,26.00
2017,06,24,17,07,26.00
2017,06,24,17,08,26.00
2017,06,24,17,09,26.10
2017,06,24,17,10,26.10
2017,06,24,17,11,26.10
2017,06,24,17,12,26.10
2017,06,24,17,13,26.10
2017,06,24,17,14,26.20
2017,06,24,17,15,26.20
2017,06,24,17,16,26.30
2017,06,24,17,17,26.40
2017,06,24,17,18,26.40
2017,06,24,17,19,26.40